Location: Coopersdale
(40.3556°N, 78.9372°W)
Time: 01:14:21
(UTC+00:00)

Transit 4A - Pass Details

Date: 27 January 2021
Orbit: 867 x 978 km, 66.8° (Epoch: 07 March)

Event Time Altitude Azimuth Distance (km) Brightness Sun altitude
Rises 00:52:35 0° 243° (WSW) 3,666 12.0 -27.7°
Reaches altitude 10° 00:55:33 10° 255° (WSW) 2,724 11.2 -28.2°
Maximum altitude 01:00:56 28° 313° (NW) 1,741 9.7 -29.3°
Enters shadow 01:05:23 14° 5° (N) 2,445 10.0 -30.1°
Drops below altitude 10° 01:06:20 10° 11° (N) 2,715 - -30.3°
Sets 01:09:18 0° 23° (NNE) 3,652 - -30.8°
